Regional Weather Roundup
Issued by NWS Newport/Morehead, NC

Current Version | Previous Version | Graphics & Text | Print | Product List | Glossary Off
Versions: 1 2 3 4 5 6 7 8 9 10 11 12 13 14 15 16 17 18 19 20 21 22 23 24 25 26 27 28 29 30 31 32 33 34 35 36 37 38 39 40 41 42 43 44 45 46 47 48 49 50

000
ASUS42 KMHX 150322
RWRMHX
WEATHER ROUNDUP FOR EASTERN NORTH CAROLINA
NATIONAL WEATHER SERVICE NEWPORT/MOREHEAD CITY NC
1100 PM EDT SUN SEP 14 2014

NOTE: "FAIR" INDICATES FEW OR NO CLOUDS BELOW 12,000 FEET
WITH NO SIGNIFICANT WEATHER AND/OR OBSTRUCTIONS TO VISIBILITY

NCZ015>017-031-032-045>047-102-103-150400-
NORTH COAST

CITY           SKY/WX    TMP DP  RH WIND       PRES   REMARKS
EDENTON        PTCLDY    65  62  90 N3        30.21F
ELIZABETH CITY CLOUDY    68  59  73 N7        30.21F
KITTY HAWK     CLOUDY    68  57  67 N6        30.19S
MANTEO         CLOUDY    68  57  68 N9        30.20S

$$

NCZ045>047-081-094-103-104-150400-
CENTRAL COAST

CITY           SKY/WX    TMP DP  RH WIND       PRES   REMARKS
FRISCO         PTCLDY    68  63  84 NE6       30.18S
SWANQUARTER      N/A     66 N/A N/A N2        30.18R

$$

NCZ095-097-098-100-101-150400-
SOUTHERN COAST

CITY           SKY/WX    TMP DP  RH WIND       PRES   REMARKS
BEAUFORT       PTCLDY    69  64  84 N5        30.19S
CEDAR ISLAND     N/A     72 N/A N/A N12       30.21F
JACKSONVILLE   MOCLDY    71  66  84 MISG      30.19S
NEWPORT        NOT AVBL
PINEY ISLAND   PTCLDY    73  61  65 N9        30.18F
WILMINGTON     CLOUDY    70  67  90 N3        30.19S


$$

NCZ011>013-027>030-043-044-078>080-089-090>093-098-150400-
COASTAL PLAIN

CITY           SKY/WX    TMP DP  RH WIND       PRES   REMARKS
AHOSKIE        CLEAR     60  59  95 CALM      30.23F
CLINTON        CLOUDY    69  68  95 CALM      30.21F
ELIZABETHTOWN  CLOUDY    69  65  88 CALM      30.21S
GOLDSBORO      CLOUDY    68  67  98 CALM      30.20S
GREENVILLE     CLOUDY    64  63  94 N5        30.22F
HAVELOCK       PTCLDY    70  63  78 NE8       30.20F
KENANSVILLE    CLOUDY    69  65  88 CALM      30.22F
KINSTON        CLOUDY    68  65  89 N6        30.22S
NEW BERN       MOCLDY    70  62  76 NE5       30.20F
RICHLANDS      CLOUDY    70  64  83 CALM      30.20S
ROANOKE RAPIDS NOT AVBL
ROCKY MOUNT    CLOUDY    64  59  83 N7        30.23F
WASHINGTON     CLOUDY    66  60  79 E3        30.21F
WHITEVILLE     CLOUDY    67  65  91 CALM      30.20S

$$

AMZ130-135-150-152-154-156-158-170-250-252-270-ANZ085-086-088-633-658-670-150400-
MARINE OBSERVATIONS

STATION/POSITION TIME  TEMP    WIND        PRES    WAVE   SWELL
                       AIR SEA DIR/SP/G            HT/PER HT/PER
                 (UTC) (F)     (DEG/KT/KT) (MB)    (FT/S) (FT/S)
CHESAPEAKE LIGHT 0300   68      20/  6/  7 1023.7
BUOY 44014       0300   70 79   10/ 10/ 14 1021.9    4/ 7   3/ 7
DUCK             0300   69 76   30/ 10/ 14 1021.9
2E DUCK          0300                        N/A     3/ 7
OREGON INLET     0300   70 76   20/ 12/ 14 1022.0
BUOY 44095       0300      76                N/A     4/ 7
20E OREGON INLET NOT AVBL
HATTERAS CG      0300   72 79   40/  8/ 11 1022.3
DIAMOND BUOY     0300   72      10/ 14/ 17 1021.3    4/ 7   2/ 7
CAPE LOOKOUT     0300   71      20/  9/ 12 1021.9
BEAUFORT LAB     0300   71 80   10/  7/  9 1021.7
30 SE NEW RIVER  0300   76 82   40/ 14/ 16 1021.9    3/ 5   2/ 6
5 SE WRIGHTSVILL 0300   72 82   40/ 12/ 14   N/A
BUOY 41002       0241   80 83  240/ 10/ 12 1021.6    2/ 5   2/ 5
BUOY 41004       0300   80 83  110/  4/  4 1021.5    3/ 7   3/ 7

$$


USA.gov is the U.S. government's official web portal to all federal, state and local government web resources and services.